EW8320 Weather Reports


time (UTC)temp
C
wind
direction
speed
KPH
gust
KPH
rain 1hr
cm
rain 24hr
cm
rain mn
cm
humidity
%
barometer
mb
20260503054715 11 260 0.0 0.0 0.00 0.00 0.00 57 1020.0
20260503053713 11 251 0.0 0.0 0.00 0.00 0.00 57 1019.8
20260503052714 11 277 0.0 0.0 0.00 0.00 0.00 58 1019.9
20260503050812 11 275 0.0 0.0 0.00 0.00 0.00 56 1019.7
20260503045813 11 259 0.0 0.0 0.00 0.00 0.00 56 1019.9
20260503044912 11 256 0.0 0.0 0.00 0.00 0.00 56 1019.7
20260503043913 10 272 0.0 0.0 0.00 0.00 0.00 59 1019.7
20260503042915 11 234 0.0 0.0 0.00 0.00 0.00 55 1019.6
20260503042012 11 253 0.0 0.0 0.00 0.00 0.00 58 1019.6
20260503041015 10 257 0.0 0.0 0.00 0.00 0.00 61 1019.3
20260503040023 10 270 0.0 0.0 0.00 0.00 0.00 62 1019.4
20260503035112 10 226 0.0 0.0 0.00 0.00 0.00 62 1019.1
20260503034114 10 247 0.0 0.0 0.00 0.00 0.00 61 1019.1
20260503033114 12 360 0.0 0.0 0.00 0.00 0.00 74 1019.1
20260503030213 13 225 0.0 0.0 0.00 0.00 0.00 50 1018.4
20260503024217 16 266 0.0 0.0 0.00 0.00 0.00 41 1018.4
20260503023313 16 278 0.0 0.0 0.00 0.00 0.00 38 1018.6
20260503022315 16 298 0.0 0.0 0.00 0.00 0.00 38 1018.5
20260503020314 17 157 0.0 0.0 0.00 0.00 0.00 35 1018.5
20260503014314 17 321 0.0 0.0 0.00 0.00 0.00 36 1018.5
20260503013413 17 90 0.0 0.0 0.00 0.00 0.00 37 1018.6
20260503012416 18 74 0.0 0.0 0.00 0.00 0.00 37 1018.6
20260503011415 18 64 0.0 0.0 0.00 0.00 0.00 36 1018.6
20260503011313 18 39 0.0 0.0 0.00 0.00 0.00 36 1018.5
20260503005312 19 48 0.0 0.0 0.00 0.00 0.00 35 1018.3
20260503004314 20 59 0.0 9.7 0.00 0.00 0.00 31 1018.5
20260503003312 21 292 0.0 0.0 0.00 0.00 0.00 27 1018.2
20260503002313 21 306 0.0 0.0 0.00 0.00 0.00 28 1018.2
20260503001315 20 287 0.0 0.0 0.00 0.00 0.00 31 1018.1
20260503000318 20 360 0.0 0.0 0.00 0.00 0.00 30 1018.2
20260502235313 20 342 0.0 0.0 0.00 0.00 0.00 28 1018.2
20260502234329 21 250 0.0 0.0 0.00 0.00 0.00 28 1018.3
20260502232314 21 315 0.0 0.0 0.00 0.00 0.00 28 1018.4
20260502232215 21 314 0.0 0.0 0.00 0.00 0.00 29 1018.2
20260502231313 21 292 0.0 0.0 0.00 0.00 0.00 27 1018.3
20260502230313 21 271 0.0 0.0 0.00 0.00 0.00 27 1018.4
20260502225313 21 90 0.0 0.0 0.00 0.00 0.00 27 1018.4
20260502225214 21 90 0.0 0.0 0.00 0.00 0.00 28 1018.5
20260502224216 22 360 0.0 0.0 0.00 0.00 0.00 27 1018.5
20260502220315 22 96 0.0 0.0 0.00 0.00 0.00 31 1018.6
20260502215316 21 63 0.0 1.6 0.00 0.00 0.00 33 1018.8
20260502213313 22 98 0.0 0.0 0.00 0.00 0.00 29 1018.9
20260502212314 22 98 0.0 0.0 0.00 0.00 0.00 29 1018.9
20260502211413 22 82 0.0 0.0 0.00 0.00 0.00 28 1018.9
20260502210413 22 67 0.0 0.0 0.00 0.00 0.00 31 1019.2
20260502205414 21 103 0.0 0.0 0.00 0.00 0.00 31 1019.1
20260502204416 18 79 0.0 0.0 0.00 0.00 0.00 33 1019.2
20260502203429 18 114 0.0 0.0 0.00 0.00 0.00 32 1019.2
20260502202415 18 86 0.0 0.0 0.00 0.00 0.00 33 1019.3
20260502201415 18 350 0.0 0.0 0.00 0.00 0.00 34 1019.4
20260502200411 18 77 0.0 0.0 0.00 0.00 0.00 33 1019.4
20260502195413 17 38 0.0 0.0 0.00 0.00 0.00 34 1019.5
20260502193414 22 78 0.0 0.0 0.00 0.00 0.00 33 1019.7
20260502192413 21 48 0.0 0.0 0.00 0.00 0.00 35 1019.9
20260502192314 21 48 0.0 0.0 0.00 0.00 0.00 36 1020.0
20260502191315 21 85 0.0 0.0 0.00 0.00 0.00 37 1019.9
20260502190315 21 99 0.0 0.0 0.00 0.00 0.00 40 1020.1
20260502185413 21 88 0.0 0.0 0.00 0.00 0.00 37 1020.0
20260502184513 21 65 0.0 0.0 0.00 0.00 0.00 38 1020.1
20260502183514 20 69 0.0 0.0 0.00 0.00 0.00 33 1020.2
20260502182513 20 294 0.0 0.0 0.00 0.00 0.00 34 1020.3
20260502181512 20 187 0.0 0.0 0.00 0.00 0.00 35 1020.6
20260502180612 20 113 0.0 0.0 0.00 0.00 0.00 36 1020.5
20260502163713 11 270 0.0 0.0 0.00 0.00 0.00 46 1021.2
20260502162715 11 270 0.0 0.0 0.00 0.00 0.00 46 1021.3
20260502161716 10 180 0.0 0.0 0.00 0.00 0.00 49 1021.3
20260502151913 7 246 0.0 0.0 0.00 0.00 0.00 63 1021.5
20260502150914 6 245 0.0 0.0 0.00 0.00 0.00 63 1021.4
20260502140113 2 275 0.0 0.0 0.00 0.00 0.00 72 1021.0
20260502130213 2 262 0.0 0.0 0.00 0.00 0.00 75 1020.7
20260502123215 2 283 0.0 0.0 0.00 0.00 0.00 71 1020.7
20260502123113 2 263 0.0 0.0 0.00 0.00 0.00 70 1020.8
20260502122114 3 272 0.0 0.0 0.00 0.00 0.00 71 1020.6
20260502121113 2 278 0.0 0.0 0.00 0.00 0.00 72 1020.7
20260502120113 2 275 0.0 0.0 0.00 0.00 0.00 72 1020.6
20260502115115 3 257 0.0 0.0 0.00 0.00 0.00 71 1020.6
20260502114114 3 282 0.0 0.0 0.00 0.00 0.00 71 1020.8
20260502113113 3 269 0.0 0.0 0.00 0.00 0.00 72 1020.8
20260502112113 3 271 0.0 0.0 0.00 0.00 0.00 70 1020.8
20260502110212 3 274 0.0 0.0 0.00 0.00 0.00 68 1020.8
20260502110131 3 286 0.0 0.0 0.00 0.00 0.00 68 1020.7
20260502105214 3 278 0.0 0.0 0.00 0.00 0.00 68 1020.9
20260502104214 3 258 0.0 0.0 0.00 0.00 0.00 67 1020.9
20260502103215 3 268 0.0 0.0 0.00 0.00 0.00 66 1021.0
20260502102212 3 284 0.0 0.0 0.00 0.00 0.00 67 1021.0
20260502101214 3 275 0.0 0.0 0.00 0.00 0.00 68 1021.0
20260502100213 3 279 0.0 0.0 0.00 0.00 0.00 68 1020.7
20260502091314 3 199 0.0 0.0 0.00 0.00 0.00 70 1021.0
20260502090338 3 239 0.0 0.0 0.00 0.00 0.00 70 1020.9
20260502071513 3 253 0.0 0.0 0.00 0.00 0.00 78 1020.8